Oscoda, MI

9:28 PM EST on December 08, 2019 (GMT -0500)
Oscoda-Wurtsmith

Weather History for KOSC - October, 2019

Change the Weather History Date:

Monday, October 28, 2019

  Actual Average Record
Temperature  
Mean Temperature 48 °F -  
Max Temperature 62 °F 50 °F 64 °F (1998)
Min Temperature 34 °F 35 °F 21 °F (1997)
Degree Days  
Heating Degree Days 17    
Moisture  
Dew Point 42 °F    
Average Humidity 83    
Maximum Humidity 100    
Minimum Humidity 54    
Precipitation  
Precipitation 0.00 in - - ()
Sea Level Pressure  
Sea Level Pressure 29.99 in    
Wind  
Wind Speed 6 mph ()    
Max Wind Speed 14 mph    
Max Gust Speed 18 mph    
Visibility 9.9 miles    
Events      
Averages and records for this station are not official NWS values.
T = Trace of Precipitation, MM = Missing Value Source: Averaged Metar Reports

Daily Weather History Graph

Daily Weather History Graph

Search for Another Location

Airport or City:

Astronomy

Oct. 28, 2019 Rise Set
Actual Time 8:05 AM EDT 6:28 PM EDT
Civil Twilight 7:35 AM EDT 6:58 PM EDT
Nautical Twilight 7:01 AM EDT 7:32 PM EDT
Astronomical Twilight 6:27 AM EDT 8:06 PM EDT
Moon 8:24 AM EDT (10/28) 7:13 PM EDT (10/28)
Length of Visible Light 11h 23m
Length of Day
10h 23m
New Moon, 0% of the Moon is Illuminated
Oct 28
New Moon
Nov 4
First Quarter
Nov 12
Full
Nov 19
Last Quarter
Nov 26
New

Hourly Weather History & Observations

Time (EDT) Temp. Windchill Dew Point Humidity Pressure Visibility Wind Dir Wind Speed Gust Speed Precip Events Conditions
12:00 AM 37.4 °F 32.8 °F 37.4 °F 100% 29.95 in 10.0 mi SW 5.8 mph - N/A   Clear
12:18 AM 36.0 °F 31.1 °F 36.0 °F 100% 29.95 in 10.0 mi SW 5.8 mph - N/A   Clear
12:36 AM 35.4 °F 29.7 °F 35.4 °F 100% 29.96 in 10.0 mi SSW 6.9 mph - N/A   Clear
12:55 AM 39.9 °F 33.9 °F 39.7 °F 99% 29.96 in 10.0 mi SW 9.2 mph - N/A   Clear
1:15 AM 39.4 °F 35.2 °F 38.1 °F 95% 29.96 in 10.0 mi SW 5.8 mph - N/A   Clear
1:16 AM 39.4 °F 35.2 °F 37.9 °F 95% 29.96 in 10.0 mi SW 5.8 mph - N/A   Clear
1:38 AM 37.0 °F 32.4 °F 35.4 °F 94% 29.96 in 10.0 mi SW 5.8 mph - N/A   Clear
1:57 AM 37.0 °F 32.4 °F 36.1 °F 97% 29.96 in 10.0 mi WSW 5.8 mph - N/A   Clear
2:15 AM 35.8 °F 30.1 °F 35.4 °F 99% 29.97 in 10.0 mi SW 6.9 mph - N/A   Clear
2:35 AM 37.6 °F 32.3 °F 37.6 °F 100% 29.97 in 10.0 mi SSW 6.9 mph - N/A   Clear
2:36 AM 37.6 °F 33.1 °F 37.4 °F 99% 29.97 in 10.0 mi SSW 5.8 mph - N/A   Clear
2:55 AM 37.4 °F 32.1 °F 36.5 °F 97% 29.97 in 10.0 mi SSW 6.9 mph - N/A   Clear
3:00 AM 37.9 °F 32.7 °F 37.2 °F 97% 29.97 in 10.0 mi SSW 6.9 mph - N/A   Clear
3:17 AM 38.7 °F 34.3 °F 37.4 °F 95% 29.98 in 10.0 mi SSW 5.8 mph - N/A   Clear
3:36 AM 37.2 °F 32.6 °F 35.6 °F 94% 29.98 in 10.0 mi SSW 5.8 mph - N/A   Clear
3:55 AM 35.6 °F 30.7 °F 34.0 °F 94% 29.98 in 10.0 mi SSW 5.8 mph - N/A   Clear
3:56 AM 35.4 °F 30.5 °F 33.8 °F 94% 29.98 in 10.0 mi SSW 5.8 mph - N/A   Clear
4:15 AM 35.4 °F 30.5 °F 34.7 °F 97% 29.99 in 10.0 mi SSW 5.8 mph - N/A   Clear
4:39 AM 36.5 °F 31.8 °F 35.8 °F 97% 29.99 in 10.0 mi SSW 5.8 mph - N/A   Clear
4:56 AM 35.6 °F 29.2 °F 34.9 °F 97% 29.99 in 10.0 mi SW 8.1 mph - N/A   Clear
5:15 AM 35.6 °F 30.7 °F 35.2 °F 99% 29.99 in 10.0 mi SSW 5.8 mph - N/A   Clear
5:16 AM 35.6 °F 30.7 °F 35.4 °F 99% 29.99 in 10.0 mi SSW 5.8 mph - N/A   Clear
5:35 AM 37.4 °F 32.8 °F 36.9 °F 98% 29.99 in 10.0 mi SSW 5.8 mph - N/A   Clear
5:55 AM 34.7 °F 29.6 °F 33.8 °F 97% 30.00 in 10.0 mi SW 5.8 mph - N/A   Clear
6:18 AM 34.3 °F 29.2 °F 34.3 °F 100% 30.00 in 10.0 mi SSW 5.8 mph - N/A   Clear
6:36 AM 34.9 °F 29.9 °F 34.9 °F 100% 30.00 in 10.0 mi SW 5.8 mph - N/A   Scattered Clouds
6:55 AM 36.7 °F 31.2 °F 36.7 °F 100% 30.01 in 10.0 mi SW 6.9 mph - N/A   Mostly Cloudy
6:56 AM 36.7 °F 32.0 °F 36.7 °F 100% 30.01 in 10.0 mi SW 5.8 mph - N/A   Mostly Cloudy
7:15 AM 39.6 °F 35.4 °F 37.6 °F 93% 30.00 in 10.0 mi SSW 5.8 mph - N/A   Mostly Cloudy
7:39 AM 35.2 °F 31.2 °F 34.3 °F 97% 30.00 in 10.0 mi SW 4.6 mph - N/A   Clear
7:57 AM 36.1 °F - 36.1 °F 100% 30.00 in 10.0 mi Calm Calm - N/A   Clear
8:15 AM 36.9 °F - 36.7 °F 99% 30.00 in 10.0 mi Calm Calm - N/A   Clear
8:16 AM 36.9 °F - 36.7 °F 99% 30.00 in 10.0 mi Calm Calm - N/A   Clear
8:35 AM 37.0 °F - 36.9 °F 99% 29.99 in 10.0 mi Calm Calm - N/A   Clear
8:55 AM 37.4 °F 34.9 °F 37.2 °F 99% 30.00 in 7.0 mi SW 3.5 mph - N/A   Clear
9:18 AM 39.2 °F 35.9 °F 39.2 °F 100% 30.00 in 7.0 mi West 4.6 mph - N/A   Clear
9:36 AM 42.4 °F 40.7 °F 42.4 °F 100% 30.00 in 10.0 mi SSW 3.5 mph - N/A   Clear
9:56 AM 46.8 °F - 43.9 °F 90% 30.00 in 10.0 mi South 9.2 mph - N/A   Clear
10:15 AM 49.1 °F - 45.9 °F 89% 30.00 in 10.0 mi SSW 6.9 mph - N/A   Clear
10:39 AM 51.6 °F - 47.1 °F 85% 30.00 in 10.0 mi SSW 10.4 mph - N/A   Clear
10:57 AM 53.4 °F - 48.0 °F 82% 30.00 in 10.0 mi SW 10.4 mph - N/A   Clear
11:15 AM 54.5 °F - 47.5 °F 77% 30.00 in 10.0 mi SSW 10.4 mph - N/A   Clear
11:16 AM 54.5 °F - 47.5 °F 77% 30.00 in 10.0 mi SW 10.4 mph - N/A   Clear
11:35 AM 55.4 °F - 47.3 °F 74% 29.99 in 10.0 mi SW 13.8 mph - N/A   Clear
11:55 AM 57.0 °F - 47.5 °F 70% 30.00 in 10.0 mi WSW 12.7 mph - N/A   Clear
12:18 PM 57.6 °F - 46.8 °F 67% 30.00 in 10.0 mi SW 11.5 mph - N/A   Clear
12:36 PM 58.8 °F - 46.9 °F 65% 30.00 in 10.0 mi WSW 10.4 mph - N/A   Clear
12:55 PM 59.0 °F - 46.4 °F 63% 30.00 in 10.0 mi WSW 9.2 mph - N/A   Clear
1:15 PM 59.9 °F - 46.4 °F 61% 29.99 in 10.0 mi SW 10.4 mph - N/A   Clear
1:39 PM 60.4 °F - 45.9 °F 59% 29.99 in 10.0 mi SW 9.2 mph 17.3 mph N/A   Clear
1:57 PM 61.5 °F - 45.7 °F 56% 29.98 in 10.0 mi SW 13.8 mph 18.4 mph N/A   Clear
2:15 PM 62.4 °F - 45.5 °F 54% 29.98 in 10.0 mi SW 10.4 mph - N/A   Clear
2:16 PM 62.4 °F - 45.5 °F 54% 29.98 in 10.0 mi SW 11.5 mph - N/A   Clear
2:35 PM 62.4 °F - 45.3 °F 54% 29.98 in 10.0 mi SW 13.8 mph - N/A   Clear
2:55 PM 62.2 °F - 47.1 °F 58% 29.98 in 10.0 mi SW 5.8 mph 9.2 mph N/A   Clear
3:18 PM 62.2 °F - 46.8 °F 57% 29.98 in 10.0 mi SSW 9.2 mph - N/A   Clear
3:36 PM 62.2 °F - 46.9 °F 57% 29.98 in 10.0 mi SW 6.9 mph - N/A   Clear
3:55 PM 62.6 °F - 47.5 °F 58% 29.98 in 10.0 mi SSW 9.2 mph - N/A   Scattered Clouds
3:56 PM 62.4 °F - 47.5 °F 58% 29.98 in 10.0 mi SW 8.1 mph - N/A   Scattered Clouds
4:15 PM 62.2 °F - 47.1 °F 58% 29.99 in 10.0 mi SSW 6.9 mph - N/A   Scattered Clouds
4:57 PM 60.3 °F - 47.5 °F 63% 30.00 in 10.0 mi SSW 5.8 mph - N/A   Overcast
5:15 PM 59.4 °F - 47.8 °F 66% 30.01 in 10.0 mi SSW 5.8 mph - N/A   Overcast
5:16 PM 59.4 °F - 47.8 °F 66% 30.01 in 10.0 mi SSW 5.8 mph - N/A   Overcast
5:35 PM 58.8 °F - 48.2 °F 68% 30.01 in 10.0 mi SSW 4.6 mph - N/A   Overcast
5:36 PM 58.8 °F - 48.2 °F 68% 30.01 in 10.0 mi SSW 4.6 mph - N/A   Overcast
5:55 PM 58.1 °F - 48.2 °F 70% 30.01 in 10.0 mi SSW 3.5 mph - N/A   Overcast
6:00 PM 58.1 °F - 48.2 °F 70% 30.01 in 10.0 mi SSW 3.5 mph - N/A   Overcast
6:18 PM 57.6 °F - 47.8 °F 70% 30.02 in 10.0 mi Calm Calm - N/A   Overcast
6:36 PM 55.9 °F - 48.2 °F 75% 30.02 in 10.0 mi WNW 3.5 mph - N/A   Overcast
6:55 PM 55.8 °F - 48.2 °F 76% 30.01 in 10.0 mi Calm Calm - N/A   Overcast
7:15 PM 55.4 °F - 47.3 °F 74% 30.02 in 10.0 mi West 3.5 mph - N/A   Overcast
7:16 PM 55.4 °F - 47.3 °F 74% 30.02 in 10.0 mi West 3.5 mph - N/A   Overcast
7:38 PM 54.9 °F - 47.1 °F 75% 30.02 in 10.0 mi NW 3.5 mph - N/A   Overcast
7:57 PM 54.3 °F - 46.8 °F 76% 30.02 in 10.0 mi Calm Calm - N/A   Overcast
8:15 PM 54.7 °F - 46.4 °F 74% 30.02 in 10.0 mi Calm Calm - N/A   Overcast
8:35 PM 54.0 °F - 46.8 °F 77% 30.02 in 10.0 mi Calm Calm - N/A   Overcast
8:55 PM 53.8 °F - 46.9 °F 78% 30.02 in 10.0 mi Calm Calm - N/A   Overcast
9:18 PM 53.2 °F - 47.3 °F 80% 30.01 in 10.0 mi Calm Calm - N/A   Overcast
9:36 PM 51.8 °F - 46.9 °F 83% 30.01 in 10.0 mi Calm Calm - N/A   Overcast
9:55 PM 51.3 °F - 46.8 °F 85% 30.01 in 10.0 mi Calm Calm - N/A   Overcast
10:15 PM 52.3 °F - 47.3 °F 83% 30.01 in 10.0 mi Calm Calm - N/A   Overcast
10:39 PM 51.4 °F - 47.3 °F 86% 30.02 in 10.0 mi Calm Calm - N/A   Overcast
10:57 PM 52.7 °F - 46.6 °F 80% 30.02 in 10.0 mi ESE 4.6 mph - N/A   Overcast
11:15 PM 52.7 °F - 46.4 °F 79% 30.01 in 10.0 mi Calm Calm - N/A   Overcast
11:35 PM 51.6 °F - 46.9 °F 84% 30.00 in 10.0 mi ENE 4.6 mph - N/A   Overcast
11:55 PM 51.3 °F - 46.4 °F 83% 30.00 in 10.0 mi Calm Calm - N/A   Overcast